User: anonymous   Login
Location: Acheville
(50.3840°N, 2.8827°E)
Time: 17:09:32
(UTC+00:00)
Language:

SWARM A - Orbit

View from above orbital plane
View from above orbital plane
View from above satellite
View from above satellite

Ground track
Ground track

The orbit data is extracted from the following two-line orbital elements,

1 39452U 13067B   22021.86254671  .00003983  00000-0  78473-4 0  9992
2 39452  87.3587 278.0367 0002353  90.0115 270.1413 15.46862032459288
Epoch (UTC): 21 January 2022 20:42:04
Eccentricity: 0.0002353
inclination: 87.3587°
perigee height: 424 km
apogee height: 427 km
right ascension of ascending node: 278.0367°
argument of perigee: 90.0115°
revolutions per day: 15.46862032
mean anomaly at epoch: 270.1413°
orbit number at epoch: 45928

The dashed part of the orbit path shows where the satellite is in the earth's shadow,  

DLR